www.pogodaiklimat.ru

Погода и климат >> Архив погоды >> Казахстан >> Костанай


АРХИВ ПОГОДЫ в Костанае

Время (UTC), дата Ветер
(напр.,м/с)
 
Видим.   Явления Облачность Т
(С)
Тd
(С)
f
(%)
Тe
(С)
Тes
(С)
Комфортность P
(гПа)
Po
(гПа)
Тmin
(С)
Tmax
(С)
R
(мм)
R24
(мм)
S
(см)
18 13.09 Ю 4 н/о {метель} 8/3 600 м
[Sc Ci fib]
+17.2 +3.8 41 +17 +17 тепло 1017.9 1000.0 +24.5
21 13.09 Ю 4 н/о 3/0
[Ci fib]
+17.2 +3.4 40 +17 +17 тепло 1016.6 998.6
00 14.09 Ю 3 н/о 4/0
[Ci fib]
+15.4 +4.0 46 +15 +15 тепло 1015.7 997.7
03 14.09 З 3 10 км слабый ливневой дождь 10/10 600 м
[Cb cap]
+14.0 +10.4 79 +13 +13 тепло 1017.2 999.0
06 14.09 ЮЗ 4 20 км {ливн. осадки} 9/9 1000 м
[Cu Sc]
+18.6 +10.9 61 +19 +20 тепло 1015.8 998.0 +14.0 0.9
09 14.09 З 6 50 км {ливн. осадки} 9/9 1000 м
[Cu Sc]
+20.1 +10.7 55 +21 +22 комфорт 1015.8 998.0
12 14.09 З 6 50 км {ливн. осадки} 9/8 1000 м
[Cu Sc Ac trans]
+22.2 +10.6 48 +24 +24 комфорт 1015.5 997.8
15 14.09 З 5 н/о 9/9 1000 м
[Sc]
+20.9 +10.5 51 +23 +23 комфорт 1015.7 998.0 +23.0
18 14.09 З 5 н/о ясно +15.7 +9.5 67 +15 +15 тепло 1017.8 999.8 +23.0 0.0
21 14.09 З 5 н/о ясно +14.1 +9.0 71 +12 +12 тепло 1019.6 1001.4
00 15.09 З 3 н/о ясно +10.0 +7.3 83 +8 +8 по сезону 1020.8 1002.4
03 15.09 ЮЗ 1 50 км ясно +11.7 +6.8 72 +12 +13 тепло 1021.6 1003.2
06 15.09 З 5 50 км ясно +18.3 +6.2 45 +18 +22 тепло 1021.2 1003.2 +7.0
09 15.09 З 4 50 км ясно +20.6 +4.3 34 +21 +26 комфорт 1020.5 1002.8
12 15.09 З 4 50 км 1/0
[Ci fib]
+21.6 +2.9 29 +22 +23 комфорт 1020.0 1002.3
15 15.09 З 2 н/о 6/0
[Ci fib]
+14.7 +7.1 60 +15 +15 тепло 1021.4 1003.1 +21.6
18 15.09 штиль 0 н/о 4/0
[Ci fib]
+9.4 +5.1 74 +9 +9 по сезону 1022.8 1004.3 +21.6
21 15.09 штиль 0 н/о 9/0
[Ac trans Ci]
+11.0 +6.4 73 +11 +11 тепло 1023.1 1004.7
00 16.09 штиль 0 н/о 3/0
[Ac lent]
+6.2 +2.8 79 +5 +5 по сезону 1024.0 1005.2
03 16.09 штиль 0 50 км 4/0
[Ci fib]
+8.3 +3.4 71 +8 +9 по сезону 1024.5 1005.8
06 16.09 С 1 50 км ясно +16.3 +7.3 55 +17 +25 тепло 1024.1 1006.0 +4.9
09 16.09 З 3 50 км 6/6 1000 м
[Cu med, cong]
+19.6 +7.0 44 +21 +23 комфорт 1023.1 1005.2
12 16.09 З 2 50 км 6/3 1000 м
[Cu med, cong Ci fib]
+20.0 +3.6 34 +21 +22 комфорт 1022.4 1004.5
15 16.09 В 1 н/о 1/0
[Ci fib]
+13.2 +6.8 65 +14 +14 по сезону 1023.3 1005.0 +20.6
18 16.09 В 3 н/о ясно +10.7 +5.5 70 +9 +9 по сезону 1023.6 1005.1 +20.6
21 16.09 В 1 н/о ясно +9.0 +4.5 73 +9 +9 по сезону 1023.7 1005.1
00 17.09 ЮВ 1 н/о ясно +6.9 +4.1 82 +6 +6 по сезону 1024.2 1005.4
03 17.09 В 2 50 км 9/9 1000 м
[Sc]
+9.9 +5.3 73 +9 +9 по сезону 1023.9 1005.4
06 17.09 ЮВ 5 50 км 4/4 1000 м
[Sc Ac trans]
+18.4 +9.8 57 +18 +20 тепло 1023.4 1005.4 +5.9
09 17.09 ЮВ 5 50 км 4/0
[Ac lent Cc]
+21.0 +5.0 35 +22 +25 комфорт 1022.2 1004.4
12 17.09 ЮВ 4 50 км 4/0
[Ci fib]
+21.1 +4.8 34 +21 +22 комфорт 1021.3 1003.5
15 17.09 В 3 н/о 3/0
[Ci fib]
+15.4 +5.6 52 +15 +15 тепло 1021.6 1003.5 +21.1
18 17.09 В 4 н/о ясно +13.5 +4.3 54 +12 +12 тепло 1021.2 1002.9 +21.1
21 17.09 В 5 н/о ясно +14.6 +5.8 56 +13 +13 тепло 1020.2 1002.0
00 18.09 ЮВ 4 н/о 4/4 600 м
[Sc]
+13.9 +4.6 53 +13 +13 тепло 1020.0 1001.8
03 18.09 Ю 3 50 км 9/9 1000 м
[Sc]
+12.5 +0.9 45 +11 +11 по сезону 1020.5 1002.2
06 18.09 Ю 7 50 км 9/0
[Ac trans]
+19.6 +3.6 35 +20 +20 тепло 1019.5 1001.7 +12.5
09 18.09 ЮВ 5 50 км 9/9 600 м
[Sc]
+22.6 +5.0 32 +23 +23 комфорт 1017.8 1000.1
12 18.09 В 3 50 км 9/0
[Ac trans Ci]
+23.7 +4.6 29 +23 +24 комфорт 1015.9 998.3
15 18.09 В 2 н/о 9/0
[Ac lent Ci]
+17.2 +2.1 36 +18 +18 тепло 1014.9 997.0 +23.7
18 18.09 В 4 н/о 9/0
[Ac trans Ci]
+15.8 +4.3 46 +15 +15 тепло 1013.3 995.3 +23.7
21 18.09 В 6 н/о 9/0
[Ac lent]
+15.5 +5.1 50 +14 +14 тепло 1010.7 992.7
00 19.09 В 5 н/о 9/5 1000 м
[Sc Ac trans]
+14.2 +5.3 55 +13 +13 тепло 1008.1 990.1
03 19.09 ЮВ 6 50 км 9/8 1000 м
[Sc Ac trans]
+15.1 +9.5 69 +14 +14 тепло 1006.4 988.5
06 19.09 ЮВ 6 50 км 8/6 1000 м
[Sc Ac trans]
+19.7 +9.2 51 +20 +21 тепло 1004.0 986.5 +14.2
09 19.09 ЮВ 4 20 км в посл. час ливневой дождь 9/9 600 м
[Cb cap]
+17.7 +6.4 47 +17 +18 тепло 1003.2 985.5
12 19.09 ЮВ 4 50 км {ливн. осадки} 9/4 1000 м
[Cu Sc Ac lent Cc]
+20.6 +7.1 42 +22 +22 комфорт 1001.7 984.2
15 19.09 Ю 1 н/о 8/0
[Ac trans]
+16.4 +7.0 54 +17 +17 тепло 1002.1 984.3 +21.3
18 19.09 Ю 1 н/о 8/0
[Ac trans]
+15.9 +7.6 58 +17 +17 тепло 1002.1 984.3 +21.3 0.0
21 19.09 Ю 1 н/о 5/0
[Ac trans]
+10.8 +5.3 69 +11 +11 тепло 1002.1 983.9
00 20.09 Ю 1 н/о 9/0
[Ac trans]
+7.8 +3.4 74 +7 +7 по сезону 1002.1 983.8
03 20.09 Ю 1 50 км 8/8 600 м
[Sc]
+10.1 +4.8 70 +10 +10 по сезону 1002.7 984.5
06 20.09 Ю 2 50 км 6/6 1000 м
[Cu med, cong]
+15.2 +6.5 56 +15 +18 тепло 1002.5 984.7 +7.8
09 20.09 ЮЗ 3 50 км 9/9 1000 м
[Cu med, cong]
+17.1 +6.1 48 +17 +18 тепло 1001.7 984.0
12 20.09 З 3 50 км 8/6 1000 м
[Cu med, cong Ac trans]
+17.2 +7.0 51 +17 +17 тепло 1001.6 983.9

 

Местоположение метеостанции Костанай (Костанайская область, Казахстан): широта 53.22 долгота 63.62 высота над уровнем моря 156 м.

В архиве по умолчанию представлена погода в Костанае за последнюю неделю. Архивные данные за месяц целиком и за предыдущие месяцы, начиная с января 2011 года, Вы можете получить, выбрав интересующий диапазон дат из раскрывающегося списка и нажав кнопку "Ввод!".


*Определитесь, кто Вы:
робот инопланетянин человек

Внимание! Время в таблицах - всемирное. Для получения местного времени необходимо прибавить поправку, которая в Костанае равна 6 ч.

Смотрите также архив погоды в соседних городах и на ближайших метеорологических станциях:

Погода в Костанае 2 (Костанайская область, Казахстан) (3 км)
Погода в Рудном (Костанайская область, Казахстан) (43 км)
Погода в Тоболе (Костанайская область, Казахстан) (91 км)
Погода в Кусмурыне (Костанайская область, Казахстан) (109 км)
Погода в Карабалыке (Костанайская область, Казахстан) (118 км)
Погода в Сарыколе (Костанайская область, Казахстан) (129 км)
Погода в Михайловке (Костанайская область, Казахстан) (136 км)
Погода в Диевской (Костанайская область, Казахстан) (136 км)
Погода в Карасу (Костанайская область, Казахстан) (140 км)
Погода в Целинном (Курганская область, Россия) (142 км)

Пояснения к столбцам:

Ветер - указаны скорость ветра в м/с - средняя за 10 мин, порывы в срок и между сроками (в фигурных скобках) и направление, откуда дует ветер: С - северный, СВ - северо-восточный, В - восточный, ЮВ - юго-восточный, Ю - южный, ЮЗ - юго-западный, З - западный, СЗ - северо-западный.
Видимость - горизонтальная дальность видимости в метрах или километрах. При видимости от 1 до 10 км при отсутствии осадков обычно наблюдается дымка, при ухудшении видимости до 1 км и менее - туман. В сухую погоду видимость может ухудшаться дымом, пылью или мглою.
Явления - указаны атмосферные явления, наблюдавшиеся в срок или в последний час перед сроком; фигурными скобками обозначены явления, наблюдавшиеся между сроками (за 1-3 часа до срока); квадратными скобками обозначены град или гололедные отложения с указанием их диаметра в мм.
Облачность - указаны через наклонную черту общая и нижняя облачность в баллах и высота нижней границы облаков в метрах; квадратными скобками обозначены формы облаков: Ci - перистые, Cs - перисто-слоистые, Cc - перисто-кучевые, Ac - высококучевые, As - высокослоистые, Sc - слоисто-кучевые, Ns - слоисто-дождевые, Cu - кучевые, Cb - кучево-дождевые. Подробнее классификацию облаков см. в Атласе облаков (PDF).
T - Температура воздуха - температура, измеренная на высоте 2 м над землей.
Td - Температура точки росы - температура, при понижении до которой содержащийся в воздухе водяной пар достигнет насыщения.
f - Относительная влажность воздуха - влажноcть воздуха, измеренная на высоте 2 м над землей.
Te - Эффективная температура - температура, которую ощущает одетый по сезону человек в тени. Характеристика душности погоды. При расчете учитывается влияние влажности воздуха и скорости ветра на теплоощущения человека.
Tes - Эффективная температура на солнце - температура, которую ощущает человек, с поправкой на солнечный нагрев. Характеристика знойности погоды. Зависит от высоты солнца над горизонтом, облачности и скорости ветра. Ночью, в пасмурную погоду, а также при ветре 12 м/с и более поправка равна нулю.
P - Атмосферное давление - приведенное к уровню моря атмосферное давление.
Po - Атмосферное давление - измеренное на уровне метеостанции атмосферное давление.
Tmin - Минимальная температура - минимум температуры воздуха на высоте 2 м над землей.
Tmax - Максимальная температура - максимум температуры воздуха на высоте 2 м над землей.
R - Количество осадков - Количество выпавших осадков за период времени, мм. При наведении курсора мыши на число - период времени, за который выпало указанное количество осадков.
R24 - Количество осадков - Количество выпавших осадков за 24 часа, мм.
S - Снежный покров - Высота снежного покрова, см. При наведении курсора мыши на число - состояние снежного покрова и степень покрытия местности в баллах.